weather.gov     
National Weather Service

Terminal Aerodrome Forecast
NWS Homepage
This page is being discontinued on March 12, 2014.
The same data is available at this site. Please update your bookmarks.
Thank you, and we apologize for the inconvenience.
Please send an email to SR-SRH.Webmaster@noaa.gov with any concerns.


Current Version
Previous Version:    01  02  03  04  05  06  07  08  09  10  11  12  13  14  15  16  17  18  19  20  21  
[Printable]
333
FTUS41 KILN 310500
TAFCMH
TAF
KCMH 310534Z 3106/0106 22003KT P6SM OVC045
     FM310800 VRB03KT P6SM BKN080
     FM311400 22008KT P6SM VCSH OVC040
     FM311700 27012G20KT 5SM -SHRA BR OVC025
     FM010000 32014G23KT P6SM VCSH OVC018=


U.S. Dept. of Commerce
NOAA National Weather Service
1325 East West Highway
Silver Spring, MD 20910
E-mail: w-nws.webmaster@noaa.gov
Page last modified: May 16, 2007
NATIONAL WEATHER SERVICE: for Safety, for Work, for Fun - FOR LIFE